Location: Nairn
(57.5833°N, 3.8667°W)
Time: 01:42:37
(UTC+00:00)

Cosmos 2333 Rocket - Pass Details

Date: 07 August 2020
Orbit: 838 x 864 km, 70.8° (Epoch: 27 September)

Event Time Altitude Azimuth Distance (km) Brightness Sun altitude
Rises 00:37:04 0° 322° (NW) 3,457 6.2 -16.0°
Reaches altitude 10° 00:39:36 10° 318° (NW) 2,517 5.3 -16.0°
Maximum altitude 00:45:08 49° 245° (WSW) 1,102 2.6 -15.9°
Enters shadow 00:48:16 25° 183° (S) 1,683 3.1 -15.9°
